Precipitable_Water
0.61 0.61 0.61 0.61 0.60 0.58 0.58 0.58 0.58 0.56 0.56 0.54 0.52 0.50 0.50 0.49 0.49 0.47 0.46 0.46 0.46 0.46 0.46 0.46 0.46 0.46 0.45 0.42 0.41 0.40 0.39 0.28 0.22 0.20 0.22 0.19 0.24 0.30 0.38 0.36 0.37 0.35 0.49 0.43 0.39 0.43 0.45 0.78 0.84 1.01 1.06 1.12 1.12 1.04 1.28 1.37 1.50 1.45 1.21 1.17 1.09 1.15 1.15 1.35 1.33 1.41 1.46 1.34 1.50 1.61 1.62 1.49 1.36 1.53 1.56 1.68 1.46 1.46 1.36 1.21 1.24 1.24 1.13 1.19 1.24 1.32 1.36 1.41
0.62 0.62 0.62 0.62 0.61 0.60 0.59 0.58 0.57 0.56 0.56 0.54 0.54 0.52 0.51 0.51 0.51 0.50 0.48 0.48 0.47 0.47 0.47 0.47 0.46 0.46 0.46 0.42 0.42 0.40 0.35 0.28 0.22 0.25 0.19 0.21 0.34 0.35 0.40 0.39 0.34 0.37 0.44 0.37 0.37 0.39 0.40 0.59 0.81 0.99 1.00 0.99 1.18 1.05 1.24 1.17 1.48 1.27 1.21 1.18 1.04 1.21 1.28 1.57 1.57 1.59 1.45 1.40 1.52 1.60 1.64 1.55 1.46 1.59 1.64 1.47 1.34 1.34 1.23 1.24 1.25 1.12 1.14 1.22 1.24 1.26 1.29 1.34
0.63 0.63 0.63 0.62 0.62 0.61 0.61 0.59 0.58 0.57 0.55 0.55 0.54 0.53 0.52 0.51 0.51 0.52 0.51 0.49 0.47 0.47 0.47 0.47 0.47 0.46 0.45 0.44 0.41 0.40 0.33 0.24 0.26 0.17 0.34 0.28 0.29 0.40 0.47 0.45 0.38 0.37 0.34 0.34 0.38 0.48 0.52 0.73 0.88 0.99 0.97 0.92 1.06 1.04 1.15 1.21 1.38 1.39 1.22 1.08 1.16 1.35 1.42 1.56 1.62 1.55 1.63 1.57 1.53 1.55 1.61 1.51 1.56 1.62 1.64 1.39 1.40 1.44 1.19 1.09 1.14 1.05 1.01 1.10 1.16 1.20 1.24 1.29
0.62 0.63 0.62 0.62 0.62 0.62 0.62 0.61 0.60 0.58 0.56 0.55 0.55 0.54 0.53 0.52 0.51 0.51 0.52 0.51 0.49 0.48 0.48 0.48 0.48 0.47 0.45 0.43 0.43 0.40 0.34 0.24 0.23 0.41 0.55 0.49 0.32 0.33 0.43 0.45 0.40 0.34 0.35 0.37 0.43 0.67 0.82 0.91 0.96 0.88 0.84 0.87 0.97 1.10 1.02 1.25 1.12 1.35 1.26 1.13 1.22 1.40 1.37 1.51 1.62 1.61 1.61 1.65 1.57 1.58 1.58 1.49 1.63 1.58 1.53 1.44 1.31 1.28 1.32 1.20 1.09 0.98 1.02 1.03 1.12 1.17 1.22 1.23
0.61 0.61 0.60 0.60 0.60 0.61 0.62 0.62 0.62 0.61 0.59 0.57 0.56 0.54 0.54 0.52 0.52 0.51 0.50 0.50 0.50 0.50 0.49 0.50 0.49 0.49 0.45 0.44 0.40 0.41 0.27 0.22 0.45 0.61 0.69 0.61 0.40 0.31 0.38 0.40 0.38 0.33 0.35 0.34 0.55 0.73 0.85 0.88 0.88 0.74 0.75 0.77 0.97 1.04 1.06 1.26 1.32 1.35 1.23 1.35 1.34 1.43 1.36 1.57 1.67 1.68 1.66 1.73 1.62 1.60 1.47 1.47 1.72 1.57 1.51 1.42 1.26 1.15 1.26 1.24 1.28 1.16 1.08 1.03 1.07 1.15 1.21 1.21
0.59 0.58 0.57 0.58 0.58 0.58 0.59 0.61 0.62 0.62 0.62 0.61 0.58 0.56 0.54 0.53 0.51 0.51 0.50 0.49 0.50 0.52 0.52 0.52 0.52 0.49 0.47 0.44 0.38 0.35 0.19 0.18 0.57 0.72 0.79 0.63 0.55 0.47 0.36 0.38 0.37 0.33 0.35 0.37 0.54 0.66 0.75 0.81 0.79 0.62 0.64 0.71 0.77 0.88 1.05 1.19 1.36 1.07 1.20 1.34 1.44 1.42 1.34 1.57 1.65 1.66 1.69 1.63 1.60 1.52 1.59 1.67 1.50 1.42 1.55 1.55 1.39 1.41 1.51 1.38 1.34 1.23 1.12 1.09 1.12 1.16 1.20 1.23
0.56 0.55 0.55 0.54 0.54 0.55 0.55 0.57 0.59 0.60 0.62 0.62 0.62 0.59 0.57 0.54 0.52 0.50 0.49 0.49 0.51 0.53 0.55 0.54 0.53 0.51 0.46 0.44 0.39 0.29 0.17 0.26 0.28 0.57 0.71 0.64 0.55 0.54 0.42 0.39 0.38 0.36 0.37 0.41 0.53 0.58 0.73 0.74 0.66 0.60 0.61 0.68 0.79 0.88 1.02 1.18 1.28 1.20 1.13 1.41 1.40 1.47 1.37 1.53 1.58 1.69 1.69 1.63 1.56 1.66 1.73 1.53 1.47 1.31 1.58 1.50 1.54 1.59 1.58 1.47 1.35 1.25 1.16 1.10 1.07 1.15 1.20 1.24
0.54 0.54 0.54 0.54 0.53 0.53 0.53 0.53 0.54 0.56 0.58 0.60 0.62 0.62 0.60 0.57 0.53 0.49 0.48 0.50 0.52 0.54 0.55 0.56 0.54 0.51 0.48 0.35 0.24 0.21 0.22 0.17 0.45 0.60 0.67 0.62 0.55 0.51 0.43 0.38 0.34 0.36 0.40 0.47 0.53 0.59 0.66 0.63 0.57 0.63 0.58 0.59 0.77 0.83 1.00 1.09 1.23 1.13 1.15 1.33 1.39 1.49 1.44 1.58 1.59 1.64 1.67 1.65 1.70 1.66 1.54 1.50 1.57 1.50 1.57 1.50 1.60 1.60 1.59 1.54 1.33 1.24 1.15 1.06 1.07 1.13 1.21 1.22
0.55 0.54 0.55 0.54 0.53 0.53 0.52 0.51 0.51 0.52 0.54 0.56 0.59 0.60 0.60 0.59 0.54 0.50 0.49 0.52 0.53 0.55 0.56 0.56 0.54 0.50 0.52 0.34 0.15 0.12 0.17 0.46 0.60 0.62 0.62 0.60 0.52 0.45 0.38 0.27 0.34 0.34 0.45 0.55 0.57 0.62 0.71 0.56 0.58 0.63 0.57 0.68 0.80 0.87 0.97 0.97 0.95 1.14 1.23 1.35 1.40 1.44 1.46 1.55 1.53 1.60 1.62 1.67 1.67 1.50 1.50 1.58 1.64 1.67 1.48 1.59 1.59 1.59 1.63 1.47 1.26 1.17 1.09 1.04 1.05 1.14 1.19 1.19
0.54 0.54 0.53 0.53 0.53 0.52 0.52 0.50 0.50 0.50 0.50 0.52 0.54 0.56 0.57 0.57 0.54 0.52 0.52 0.52 0.54 0.54 0.56 0.57 0.56 0.50 0.39 0.29 0.28 0.13 0.46 0.71 0.70 0.57 0.52 0.53 0.49 0.40 0.32 0.25 0.28 0.35 0.49 0.53 0.57 0.59 0.61 0.63 0.56 0.65 0.69 0.68 0.76 0.78 0.93 0.97 0.90 1.17 1.27 1.35 1.40 1.41 1.52 1.54 1.45 1.56 1.64 1.63 1.60 1.37 1.43 1.50 1.64 1.57 1.26 1.60 1.62 1.57 1.53 1.37 1.21 1.10 1.03 1.06 1.05 1.10 1.16 1.16
0.53 0.53 0.52 0.52 0.51 0.51 0.50 0.50 0.49 0.49 0.50 0.49 0.51 0.54 0.54 0.53 0.52 0.52 0.54 0.53 0.54 0.56 0.55 0.56 0.55 0.48 0.30 0.38 0.21 0.18 0.65 0.61 0.67 0.64 0.60 0.51 0.41 0.31 0.22 0.21 0.26 0.36 0.55 0.58 0.59 0.65 0.71 0.73 0.66 0.71 0.74 0.70 0.78 0.82 0.85 0.98 1.09 1.15 1.29 1.36 1.42 1.45 1.49 1.50 1.54 1.49 1.60 1.55 1.64 1.49 1.42 1.55 1.57 1.53 1.35 1.50 1.57 1.53 1.42 1.30 1.14 1.05 0.98 1.00 1.06 1.07 1.13 1.16
0.55 0.54 0.53 0.51 0.50 0.50 0.49 0.49 0.48 0.48 0.48 0.48 0.49 0.50 0.52 0.50 0.49 0.51 0.52 0.55 0.55 0.56 0.56 0.56 0.53 0.46 0.35 0.27 0.20 0.31 0.69 0.61 0.66 0.62 0.51 0.39 0.29 0.24 0.19 0.23 0.29 0.44 0.61 0.63 0.67 0.71 0.75 0.74 0.62 0.63 0.61 0.78 0.67 0.84 0.87 1.06 1.09 1.17 1.22 1.20 1.31 1.30 1.32 1.52 1.42 1.51 1.61 1.46 1.65 1.59 1.39 1.31 1.40 1.30 1.51 1.56 1.54 1.49 1.36 1.26 1.10 1.02 0.98 1.00 1.03 1.07 1.10 1.11
0.56 0.55 0.54 0.53 0.51 0.50 0.50 0.48 0.47 0.47 0.47 0.47 0.47 0.48 0.49 0.48 0.48 0.48 0.50 0.52 0.55 0.56 0.57 0.55 0.52 0.44 0.35 0.19 0.20 0.48 0.66 0.71 0.59 0.57 0.48 0.33 0.24 0.21 0.25 0.28 0.35 0.64 0.73 0.74 0.73 0.65 0.66 0.62 0.60 0.55 0.63 0.62 0.63 0.66 0.90 1.04 1.08 1.17 1.24 1.21 1.10 1.18 1.26 1.49 1.51 1.56 1.49 1.51 1.60 1.47 0.95 1.13 1.32 1.46 1.57 1.60 1.52 1.44 1.29 1.23 1.09 1.02 1.00 1.00 1.00 1.02 1.09 1.06
0.57 0.57 0.55 0.54 0.53 0.51 0.51 0.50 0.48 0.48 0.47 0.46 0.46 0.47 0.47 0.45 0.46 0.46 0.48 0.49 0.52 0.53 0.56 0.53 0.48 0.42 0.34 0.16 0.34 0.50 0.59 0.62 0.63 0.54 0.37 0.33 0.27 0.24 0.33 0.35 0.43 0.64 0.75 0.77 0.80 0.74 0.52 0.55 0.53 0.53 0.57 0.55 0.56 0.73 0.80 0.88 1.10 0.95 1.12 1.19 0.98 1.04 1.09 1.44 1.50 1.49 1.38 1.62 1.57 1.51 0.97 1.10 1.35 1.47 1.61 1.61 1.56 1.40 1.24 1.19 1.11 1.02 1.02 0.99 0.94 0.95 1.03 0.98
0.58 0.57 0.56 0.55 0.54 0.53 0.52 0.52 0.50 0.48 0.47 0.45 0.45 0.46 0.45 0.43 0.44 0.45 0.48 0.46 0.52 0.51 0.49 0.51 0.47 0.37 0.22 0.26 0.45 0.53 0.78 0.78 0.64 0.50 0.38 0.34 0.29 0.28 0.34 0.40 0.40 0.58 0.67 0.71 0.64 0.58 0.54 0.51 0.50 0.46 0.45 0.57 0.61 0.65 0.67 0.76 0.92 0.99 0.89 0.84 1.05 0.97 1.11 1.26 1.48 1.44 1.24 1.50 1.64 1.41 1.05 1.10 1.33 1.48 1.62 1.64 1.59 1.47 1.26 1.24 1.12 1.04 1.01 0.97 0.91 0.94 1.00 1.01
0.59 0.58 0.58 0.57 0.56 0.55 0.54 0.53 0.52 0.50 0.48 0.46 0.45 0.45 0.44 0.44 0.42 0.44 0.44 0.47 0.49 0.51 0.47 0.38 0.40 0.35 0.25 0.31 0.58 0.66 0.58 0.52 0.57 0.60 0.53 0.43 0.36 0.31 0.40 0.44 0.47 0.54 0.59 0.61 0.60 0.54 0.48 0.46 0.40 0.40 0.47 0.52 0.50 0.48 0.56 0.66 0.77 0.89 0.87 0.82 0.84 0.96 1.02 1.11 1.30 1.39 1.38 1.45 1.52 1.37 1.07 1.22 1.31 1.52 1.62 1.66 1.62 1.49 1.31 1.27 1.12 1.07 1.01 0.96 0.85 0.94 0.96 0.98
0.60 0.60 0.60 0.60 0.59 0.58 0.57 0.55 0.53 0.52 0.49 0.47 0.46 0.44 0.44 0.42 0.43 0.42 0.42 0.43 0.47 0.45 0.38 0.42 0.55 0.45 0.20 0.53 0.64 0.54 0.47 0.48 0.61 0.64 0.63 0.59 0.49 0.51 0.38 0.47 0.48 0.50 0.54 0.56 0.53 0.49 0.45 0.36 0.40 0.40 0.46 0.43 0.46 0.49 0.49 0.52 0.60 0.69 0.79 0.79 0.86 0.84 0.97 0.93 1.25 1.40 1.40 1.37 1.24 1.34 1.18 1.21 1.36 1.49 1.58 1.65 1.65 1.51 1.35 1.30 1.18 1.11 1.03 0.97 0.92 0.97 0.92 0.92
0.60 0.61 0.61 0.61 0.61 0.60 0.59 0.58 0.54 0.53 0.51 0.48 0.45 0.42 0.41 0.42 0.42 0.41 0.40 0.41 0.49 0.46 0.44 0.57 0.56 0.39 0.24 0.46 0.34 0.41 0.56 0.52 0.50 0.63 0.60 0.69 0.65 0.62 0.52 0.39 0.42 0.44 0.46 0.43 0.46 0.39 0.43 0.30 0.32 0.32 0.39 0.41 0.40 0.40 0.42 0.40 0.52 0.61 0.63 0.65 0.77 0.89 0.90 0.89 0.94 1.21 1.32 1.37 1.25 1.24 1.20 1.26 1.38 1.49 1.55 1.61 1.68 1.53 1.42 1.40 1.25 1.17 1.11 1.00 0.95 0.97 0.94 0.82
0.61 0.61 0.62 0.61 0.62 0.61 0.60 0.58 0.56 0.54 0.51 0.49 0.45 0.47 0.56 0.61 0.59 0.56 0.50 0.49 0.36 0.23 0.18 0.31 0.33 0.25 0.31 0.42 0.47 0.53 0.50 0.55 0.55 0.64 0.51 0.63 0.58 0.60 0.55 0.46 0.44 0.40 0.34 0.31 0.35 0.36 0.40 0.33 0.28 0.22 0.28 0.34 0.36 0.38 0.47 0.56 0.65 0.72 0.67 0.68 0.76 0.72 0.83 0.87 1.02 1.24 1.28 1.20 1.19 1.17 1.09 1.21 1.34 1.42 1.55 1.63 1.64 1.52 1.47 1.46 1.38 1.29 1.22 1.09 0.96 0.99 0.95 0.87
0.62 0.62 0.62 0.62 0.62 0.62 0.61 0.59 0.56 0.53 0.52 0.44 0.39 0.42 0.54 0.54 0.52 0.57 0.55 0.46 0.34 0.25 0.42 0.40 0.39 0.33 0.44 0.51 0.50 0.60 0.64 0.56 0.49 0.59 0.53 0.54 0.48 0.50 0.48 0.45 0.37 0.38 0.32 0.21 0.31 0.31 0.38 0.26 0.20 0.14 0.21 0.31 0.37 0.42 0.55 0.64 0.69 0.69 0.72 0.72 0.78 0.75 0.85 1.01 1.04 1.19 1.38 1.25 1.19 1.18 1.20 1.23 1.34 1.37 1.49 1.59 1.60 1.56 1.45 1.41 1.39 1.35 1.26 1.14 1.01 0.99 0.98 0.94
0.62 0.62 0.62 0.63 0.61 0.61 0.62 0.58 0.54 0.50 0.51 0.44 0.39 0.37 0.41 0.41 0.29 0.26 0.38 0.35 0.38 0.40 0.39 0.43 0.38 0.41 0.46 0.45 0.52 0.57 0.45 0.47 0.56 0.57 0.53 0.57 0.56 0.47 0.39 0.37 0.33 0.26 0.27 0.26 0.27 0.34 0.32 0.24 0.20 0.18 0.17 0.28 0.33 0.39 0.50 0.57 0.64 0.63 0.61 0.66 0.76 0.74 0.81 1.01 1.03 1.21 1.37 1.20 1.17 1.20 1.19 1.23 1.30 1.42 1.51 1.61 1.56 1.47 1.44 1.46 1.42 1.35 1.33 1.26 1.05 1.04 0.98 0.94
0.62 0.62 0.64 0.63 0.61 0.63 0.61 0.56 0.52 0.50 0.47 0.44 0.37 0.41 0.46 0.45 0.47 0.46 0.34 0.25 0.30 0.38 0.41 0.37 0.44 0.45 0.52 0.52 0.50 0.60 0.56 0.48 0.48 0.49 0.57 0.50 0.56 0.36 0.35 0.28 0.28 0.21 0.24 0.26 0.28 0.28 0.23 0.21 0.22 0.20 0.19 0.20 0.26 0.29 0.37 0.47 0.53 0.59 0.57 0.61 0.73 0.76 0.88 1.05 1.12 1.22 1.30 1.19 1.13 1.23 1.19 1.16 1.29 1.43 1.56 1.56 1.53 1.56 1.59 1.50 1.49 1.41 1.40 1.31 1.12 1.07 1.03 0.95
0.62 0.63 0.65 0.64 0.61 0.65 0.62 0.57 0.52 0.50 0.42 0.37 0.36 0.40 0.39 0.48 0.52 0.46 0.38 0.29 0.21 0.28 0.29 0.33 0.38 0.38 0.39 0.45 0.56 0.66 0.56 0.48 0.42 0.44 0.50 0.49 0.51 0.40 0.37 0.27 0.27 0.25 0.24 0.24 0.22 0.24 0.20 0.21 0.24 0.24 0.21 0.18 0.20 0.25 0.30 0.42 0.50 0.50 0.55 0.62 0.63 0.80 0.77 0.79 1.02 1.17 1.22 1.15 1.12 1.16 1.12 1.19 1.34 1.50 1.51 1.60 1.61 1.62 1.66 1.58 1.54 1.53 1.49 1.36 1.21 1.19 1.08 0.97
0.63 0.64 0.65 0.64 0.62 0.65 0.65 0.61 0.57 0.48 0.40 0.39 0.39 0.40 0.47 0.50 0.46 0.40 0.32 0.20 0.17 0.24 0.24 0.30 0.33 0.35 0.36 0.42 0.61 0.62 0.55 0.53 0.47 0.42 0.55 0.44 0.40 0.48 0.38 0.31 0.28 0.26 0.22 0.22 0.23 0.25 0.22 0.23 0.25 0.25 0.24 0.22 0.19 0.23 0.27 0.34 0.36 0.51 0.59 0.63 0.70 0.70 0.76 0.80 0.93 1.11 1.12 1.19 1.28 1.20 1.11 1.09 1.21 1.19 1.32 1.50 1.62 1.63 1.65 1.62 1.56 1.57 1.58 1.49 1.42 1.36 1.32 1.03
0.63 0.64 0.66 0.65 0.62 0.64 0.64 0.63 0.53 0.49 0.55 0.50 0.43 0.46 0.49 0.49 0.47 0.45 0.25 0.18 0.16 0.22 0.30 0.29 0.30 0.33 0.37 0.55 0.55 0.48 0.45 0.50 0.47 0.52 0.53 0.45 0.45 0.43 0.39 0.43 0.34 0.27 0.25 0.24 0.23 0.25 0.25 0.26 0.29 0.25 0.24 0.24 0.23 0.23 0.25 0.26 0.29 0.48 0.58 0.59 0.66 0.76 0.84 0.88 0.97 0.96 0.90 0.96 1.14 1.03 0.79 0.81 1.04 1.18 1.27 1.35 1.43 1.47 1.64 1.59 1.56 1.62 1.55 1.49 1.42 1.41 1.33 1.19
0.64 0.65 0.66 0.65 0.63 0.60 0.64 0.53 0.52 0.54 0.54 0.52 0.51 0.52 0.53 0.52 0.50 0.40 0.27 0.15 0.13 0.27 0.25 0.26 0.29 0.23 0.37 0.44 0.48 0.41 0.41 0.36 0.47 0.54 0.54 0.49 0.55 0.45 0.44 0.43 0.36 0.29 0.26 0.26 0.23 0.23 0.26 0.30 0.28 0.27 0.24 0.25 0.26 0.24 0.26 0.26 0.30 0.39 0.48 0.64 0.70 0.78 0.80 0.83 0.85 0.87 0.76 0.72 0.99 1.10 0.78 0.74 0.99 1.02 1.21 1.32 1.34 1.40 1.49 1.53 1.54 1.58 1.57 1.52 1.52 1.50 1.38 1.25
0.65 0.65 0.65 0.64 0.61 0.62 0.46 0.39 0.59 0.56 0.50 0.49 0.61 0.57 0.50 0.46 0.47 0.32 0.25 0.21 0.16 0.29 0.25 0.25 0.18 0.26 0.27 0.41 0.41 0.36 0.21 0.26 0.42 0.56 0.57 0.54 0.46 0.55 0.40 0.44 0.39 0.36 0.36 0.33 0.25 0.21 0.23 0.29 0.28 0.29 0.26 0.24 0.24 0.25 0.33 0.35 0.35 0.37 0.57 0.66 0.74 0.80 0.74 0.79 0.82 0.77 0.77 0.91 1.01 1.06 0.92 0.77 0.78 0.97 1.17 1.26 1.28 1.33 1.37 1.42 1.50 1.53 1.51 1.55 1.55 1.51 1.45 1.37
0.65 0.65 0.64 0.63 0.62 0.62 0.52 0.57 0.58 0.54 0.47 0.54 0.57 0.53 0.50 0.49 0.38 0.39 0.38 0.21 0.20 0.30 0.22 0.22 0.20 0.33 0.28 0.40 0.40 0.28 0.28 0.33 0.27 0.49 0.56 0.55 0.50 0.46 0.42 0.40 0.38 0.34 0.35 0.32 0.21 0.26 0.23 0.26 0.29 0.28 0.25 0.26 0.25 0.31 0.50 0.51 0.42 0.45 0.56 0.65 0.65 0.75 0.80 0.81 0.78 0.76 0.81 0.79 0.78 0.90 0.94 0.77 0.80 1.00 1.23 1.28 1.19 1.27 1.33 1.41 1.48 1.52 1.54 1.57 1.57 1.54 1.53 1.46
0.65 0.65 0.64 0.62 0.62 0.62 0.68 0.62 0.59 0.47 0.45 0.51 0.51 0.49 0.48 0.45 0.33 0.33 0.31 0.21 0.26 0.25 0.34 0.23 0.29 0.25 0.32 0.36 0.31 0.28 0.27 0.33 0.27 0.48 0.53 0.51 0.46 0.45 0.38 0.39 0.39 0.36 0.36 0.34 0.26 0.28 0.28 0.28 0.29 0.30 0.25 0.24 0.32 0.38 0.59 0.61 0.49 0.45 0.62 0.61 0.66 0.74 0.78 0.82 0.81 0.76 0.82 0.68 0.64 0.76 0.86 0.71 0.78 1.00 1.06 1.19 1.15 1.17 1.25 1.30 1.40 1.51 1.56 1.57 1.57 1.56 1.53 1.53
0.65 0.63 0.62 0.62 0.58 0.63 0.66 0.71 0.55 0.54 0.55 0.50 0.39 0.37 0.38 0.35 0.31 0.25 0.21 0.19 0.25 0.22 0.31 0.26 0.25 0.20 0.28 0.27 0.27 0.26 0.24 0.28 0.32 0.46 0.49 0.42 0.40 0.44 0.44 0.46 0.37 0.33 0.30 0.34 0.33 0.34 0.34 0.28 0.33 0.30 0.28 0.29 0.43 0.47 0.58 0.53 0.53 0.55 0.55 0.54 0.57 0.64 0.65 0.71 0.71 0.68 0.62 0.52 0.61 0.75 0.82 0.76 0.68 0.90 1.02 1.00 1.06 1.17 1.25 1.31 1.42 1.49 1.57 1.62 1.66 1.62 1.58 1.51
0.63 0.62 0.61 0.62 0.47 0.55 0.55 0.45 0.47 0.58 0.60 0.51 0.41 0.43 0.45 0.38 0.25 0.20 0.17 0.22 0.23 0.28 0.31 0.30 0.23 0.24 0.25 0.24 0.21 0.25 0.25 0.26 0.32 0.41 0.38 0.37 0.34 0.37 0.43 0.34 0.37 0.33 0.32 0.33 0.31 0.34 0.35 0.32 0.28 0.30 0.35 0.41 0.46 0.47 0.50 0.54 0.51 0.49 0.48 0.45 0.49 0.53 0.61 0.63 0.63 0.65 0.51 0.47 0.57 0.75 0.81 0.83 0.60 0.82 1.03 1.17 1.23 1.26 1.22 1.23 1.32 1.46 1.56 1.61 1.63 1.61 1.61 1.60
0.61 0.61 0.61 0.58 0.55 0.57 0.42 0.38 0.49 0.57 0.53 0.48 0.48 0.43 0.41 0.24 0.28 0.20 0.23 0.33 0.20 0.25 0.25 0.26 0.26 0.24 0.23 0.24 0.23 0.23 0.22 0.25 0.35 0.29 0.29 0.28 0.31 0.29 0.33 0.29 0.33 0.27 0.25 0.30 0.28 0.32 0.30 0.32 0.38 0.36 0.43 0.50 0.50 0.47 0.44 0.43 0.43 0.40 0.43 0.42 0.39 0.43 0.47 0.46 0.53 0.47 0.47 0.46 0.59 0.79 0.78 0.70 0.77 0.91 1.06 1.17 1.23 1.29 1.33 1.35 1.41 1.50 1.58 1.63 1.67 1.64 1.67 1.70
0.61 0.60 0.60 0.58 0.59 0.51 0.47 0.50 0.51 0.54 0.57 0.57 0.54 0.51 0.43 0.26 0.20 0.28 0.27 0.27 0.22 0.26 0.27 0.28 0.26 0.25 0.22 0.18 0.21 0.24 0.25 0.22 0.29 0.28 0.29 0.29 0.27 0.27 0.30 0.33 0.35 0.32 0.27 0.30 0.32 0.26 0.31 0.39 0.42 0.46 0.46 0.53 0.53 0.41 0.41 0.37 0.39 0.42 0.40 0.40 0.37 0.39 0.39 0.38 0.42 0.47 0.48 0.53 0.68 0.76 0.80 0.70 0.90 1.01 1.15 1.13 1.23 1.33 1.42 1.50 1.58 1.54 1.56 1.59 1.62 1.65 1.75 1.75
0.59 0.60 0.55 0.56 0.56 0.53 0.51 0.53 0.54 0.57 0.59 0.57 0.55 0.46 0.39 0.31 0.25 0.34 0.32 0.25 0.24 0.27 0.25 0.26 0.26 0.24 0.22 0.17 0.20 0.23 0.20 0.25 0.28 0.28 0.27 0.26 0.23 0.22 0.22 0.33 0.34 0.35 0.36 0.34 0.28 0.27 0.24 0.30 0.40 0.44 0.39 0.56 0.52 0.47 0.45 0.40 0.38 0.40 0.47 0.45 0.43 0.43 0.39 0.35 0.39 0.36 0.39 0.47 0.65 0.76 0.64 0.65 0.70 0.85 1.20 1.26 1.33 1.39 1.42 1.48 1.61 1.63 1.67 1.75 1.74 1.75 1.74 1.74
0.60 0.57 0.60 0.63 0.64 0.58 0.54 0.52 0.51 0.60 0.65 0.63 0.53 0.45 0.32 0.28 0.31 0.28 0.30 0.30 0.25 0.27 0.24 0.27 0.24 0.20 0.21 0.21 0.21 0.20 0.20 0.21 0.27 0.27 0.24 0.23 0.20 0.19 0.20 0.29 0.32 0.36 0.38 0.30 0.34 0.33 0.27 0.32 0.46 0.48 0.49 0.52 0.50 0.53 0.48 0.44 0.40 0.42 0.49 0.50 0.43 0.40 0.48 0.37 0.40 0.39 0.40 0.48 0.56 0.68 0.66 0.85 0.86 1.15 1.25 1.34 1.37 1.38 1.43 1.43 1.50 1.52 1.61 1.68 1.67 1.61 1.67 1.67
0.55 0.58 0.70 0.62 0.59 0.55 0.63 0.55 0.57 0.61 0.59 0.57 0.50 0.40 0.33 0.29 0.26 0.29 0.26 0.28 0.26 0.23 0.25 0.24 0.22 0.17 0.20 0.20 0.21 0.20 0.22 0.21 0.27 0.27 0.24 0.23 0.24 0.20 0.25 0.30 0.33 0.35 0.37 0.32 0.38 0.32 0.33 0.29 0.42 0.41 0.47 0.46 0.47 0.51 0.46 0.45 0.30 0.39 0.44 0.39 0.40 0.46 0.44 0.43 0.44 0.44 0.45 0.53 0.53 0.80 0.72 0.86 1.01 1.07 1.17 1.25 1.28 1.30 1.37 1.40 1.49 1.48 1.53 1.62 1.62 1.64 1.67 1.68
0.46 0.52 0.57 0.65 0.60 0.61 0.61 0.59 0.62 0.66 0.64 0.53 0.45 0.34 0.37 0.37 0.34 0.30 0.29 0.26 0.27 0.26 0.24 0.20 0.18 0.21 0.21 0.21 0.22 0.23 0.23 0.28 0.30 0.27 0.23 0.26 0.23 0.29 0.26 0.33 0.39 0.37 0.40 0.39 0.37 0.40 0.31 0.31 0.39 0.43 0.38 0.41 0.45 0.48 0.48 0.45 0.41 0.35 0.36 0.40 0.44 0.48 0.48 0.41 0.33 0.33 0.35 0.44 0.56 0.69 0.59 0.69 0.70 0.65 1.12 1.10 1.22 1.24 1.28 1.33 1.40 1.43 1.50 1.51 1.58 1.62 1.62 1.71
0.52 0.52 0.57 0.59 0.58 0.67 0.54 0.67 0.72 0.63 0.56 0.48 0.37 0.31 0.31 0.30 0.28 0.27 0.28 0.27 0.26 0.26 0.26 0.22 0.21 0.22 0.21 0.23 0.23 0.26 0.31 0.27 0.27 0.26 0.26 0.27 0.27 0.36 0.36 0.36 0.39 0.40 0.40 0.42 0.38 0.39 0.39 0.29 0.36 0.42 0.40 0.37 0.39 0.41 0.43 0.44 0.46 0.38 0.35 0.42 0.33 0.33 0.33 0.37 0.32 0.24 0.27 0.41 0.52 0.65 0.71 0.71 0.75 0.73 0.92 0.96 1.11 1.23 1.24 1.30 1.32 1.34 1.41 1.47 1.54 1.63 1.71 1.74
0.65 0.65 0.54 0.54 0.47 0.50 0.53 0.63 0.65 0.61 0.55 0.44 0.36 0.33 0.27 0.26 0.21 0.24 0.29 0.31 0.32 0.28 0.28 0.23 0.25 0.25 0.30 0.26 0.28 0.31 0.33 0.26 0.29 0.29 0.27 0.29 0.30 0.36 0.36 0.38 0.36 0.39 0.40 0.40 0.38 0.41 0.39 0.30 0.34 0.41 0.37 0.36 0.36 0.35 0.31 0.34 0.40 0.40 0.37 0.34 0.40 0.36 0.32 0.30 0.30 0.30 0.37 0.43 0.47 0.51 0.67 0.62 0.85 0.86 0.93 0.99 1.11 1.20 1.21 1.22 1.24 1.31 1.37 1.46 1.52 1.58 1.64 1.72
0.59 0.60 0.56 0.52 0.49 0.52 0.51 0.63 0.60 0.57 0.48 0.33 0.31 0.31 0.32 0.31 0.26 0.24 0.31 0.32 0.31 0.32 0.28 0.28 0.28 0.26 0.29 0.30 0.31 0.32 0.33 0.31 0.29 0.34 0.33 0.34 0.32 0.40 0.36 0.39 0.36 0.36 0.39 0.40 0.40 0.41 0.35 0.37 0.27 0.31 0.36 0.33 0.27 0.29 0.30 0.34 0.31 0.31 0.31 0.30 0.32 0.31 0.35 0.33 0.33 0.30 0.35 0.41 0.46 0.47 0.49 0.68 0.87 1.04 1.03 1.02 1.09 1.14 1.15 1.18 1.25 1.31 1.34 1.42 1.51 1.56 1.60 1.67
0.60 0.59 0.53 0.62 0.58 0.53 0.51 0.49 0.49 0.46 0.42 0.42 0.37 0.31 0.30 0.29 0.31 0.25 0.30 0.31 0.33 0.37 0.33 0.31 0.30 0.30 0.31 0.34 0.35 0.38 0.34 0.33 0.31 0.32 0.32 0.33 0.35 0.32 0.38 0.37 0.38 0.35 0.39 0.41 0.42 0.40 0.35 0.36 0.30 0.30 0.29 0.27 0.28 0.30 0.29 0.34 0.34 0.31 0.31 0.28 0.28 0.26 0.24 0.22 0.24 0.32 0.36 0.44 0.44 0.43 0.47 0.71 0.93 1.11 1.10 1.10 1.12 1.16 1.20 1.17 1.20 1.27 1.31 1.37 1.46 1.54 1.59 1.60
0.51 0.45 0.52 0.47 0.53 0.45 0.46 0.42 0.45 0.51 0.41 0.34 0.30 0.31 0.27 0.30 0.31 0.29 0.25 0.30 0.34 0.34 0.39 0.37 0.35 0.34 0.38 0.37 0.39 0.38 0.36 0.35 0.34 0.33 0.35 0.33 0.36 0.34 0.36 0.40 0.39 0.39 0.38 0.37 0.39 0.42 0.40 0.40 0.35 0.29 0.28 0.27 0.28 0.31 0.30 0.30 0.34 0.32 0.32 0.31 0.29 0.32 0.30 0.29 0.24 0.43 0.52 0.55 0.62 0.57 0.50 0.66 1.02 1.14 1.13 1.14 1.13 1.16 1.21 1.20 1.16 1.21 1.27 1.36 1.44 1.49 1.57 1.60
0.57 0.53 0.64 0.60 0.53 0.46 0.44 0.41 0.46 0.42 0.42 0.37 0.39 0.37 0.33 0.35 0.30 0.29 0.34 0.30 0.31 0.35 0.39 0.41 0.37 0.37 0.40 0.41 0.38 0.35 0.36 0.32 0.36 0.35 0.35 0.35 0.37 0.37 0.38 0.37 0.40 0.41 0.41 0.40 0.42 0.42 0.43 0.37 0.32 0.31 0.31 0.29 0.29 0.29 0.29 0.32 0.32 0.30 0.31 0.33 0.33 0.33 0.35 0.34 0.35 0.43 0.45 0.56 0.50 0.57 0.50 0.67 0.99 1.16 1.15 1.21 1.17 1.17 1.16 1.15 1.11 1.13 1.20 1.30 1.40 1.45 1.50 1.54
0.52 0.52 0.51 0.41 0.46 0.46 0.40 0.37 0.42 0.39 0.38 0.40 0.41 0.38 0.33 0.32 0.36 0.35 0.33 0.33 0.35 0.34 0.34 0.38 0.37 0.39 0.38 0.40 0.38 0.33 0.34 0.33 0.38 0.41 0.35 0.36 0.34 0.39 0.36 0.35 0.36 0.36 0.37 0.38 0.37 0.43 0.38 0.40 0.36 0.26 0.24 0.25 0.26 0.27 0.27 0.30 0.29 0.28 0.29 0.32 0.35 0.36 0.35 0.36 0.38 0.49 0.46 0.54 0.56 0.51 0.42 0.61 0.92 1.10 1.09 1.18 1.17 1.13 1.10 1.13 1.12 1.06 1.12 1.21 1.31 1.40 1.46 1.48
0.54 0.57 0.54 0.41 0.43 0.45 0.37 0.43 0.39 0.41 0.36 0.37 0.29 0.28 0.30 0.27 0.32 0.35 0.33 0.35 0.38 0.38 0.39 0.37 0.36 0.38 0.40 0.41 0.37 0.37 0.37 0.37 0.34 0.38 0.35 0.36 0.33 0.35 0.33 0.32 0.36 0.37 0.39 0.43 0.48 0.48 0.42 0.40 0.37 0.28 0.23 0.20 0.20 0.20 0.21 0.22 0.24 0.28 0.30 0.32 0.35 0.33 0.34 0.33 0.36 0.49 0.41 0.54 0.62 0.54 0.53 0.76 0.90 1.04 1.03 1.07 1.12 1.07 1.08 1.08 1.10 1.08 1.08 1.13 1.21 1.28 1.33 1.38
0.46 0.43 0.49 0.52 0.40 0.40 0.40 0.35 0.39 0.43 0.42 0.36 0.36 0.36 0.35 0.34 0.31 0.31 0.30 0.34 0.36 0.38 0.39 0.39 0.38 0.37 0.38 0.37 0.37 0.35 0.34 0.37 0.36 0.35 0.36 0.33 0.31 0.29 0.31 0.32 0.34 0.36 0.40 0.44 0.40 0.43 0.41 0.41 0.41 0.37 0.31 0.30 0.30 0.30 0.32 0.30 0.26 0.24 0.27 0.32 0.33 0.34 0.35 0.36 0.43 0.43 0.39 0.50 0.50 0.58 0.60 0.72 0.80 0.86 0.93 1.04 1.05 1.03 1.00 1.01 1.02 1.02 1.04 1.09 1.14 1.20 1.27 1.31
0.58 0.48 0.46 0.39 0.45 0.43 0.42 0.39 0.38 0.32 0.39 0.35 0.34 0.36 0.37 0.36 0.28 0.28 0.28 0.31 0.34 0.36 0.35 0.36 0.36 0.39 0.34 0.35 0.37 0.35 0.36 0.36 0.39 0.37 0.35 0.32 0.30 0.28 0.29 0.30 0.32 0.36 0.38 0.39 0.40 0.41 0.39 0.36 0.40 0.38 0.37 0.35 0.33 0.31 0.31 0.30 0.25 0.27 0.28 0.30 0.32 0.32 0.33 0.33 0.38 0.42 0.53 0.46 0.41 0.66 0.68 0.61 0.70 0.80 0.92 0.97 0.99 0.99 0.98 0.96 0.98 1.02 1.05 1.06 1.07 1.11 1.18 1.26
0.52 0.50 0.44 0.55 0.44 0.42 0.33 0.34 0.39 0.33 0.30 0.34 0.38 0.33 0.30 0.34 0.36 0.36 0.33 0.30 0.30 0.34 0.36 0.37 0.35 0.45 0.46 0.38 0.39 0.40 0.36 0.36 0.35 0.35 0.36 0.32 0.28 0.27 0.27 0.28 0.28 0.32 0.38 0.36 0.38 0.38 0.37 0.31 0.34 0.36 0.38 0.38 0.34 0.31 0.30 0.29 0.29 0.26 0.28 0.31 0.30 0.31 0.30 0.31 0.38 0.57 0.52 0.41 0.46 0.65 0.71 0.64 0.72 0.80 0.84 0.90 0.93 0.92 0.95 0.97 0.98 1.00 1.04 1.06 1.05 1.03 1.06 1.16
0.59 0.52 0.47 0.48 0.41 0.43 0.41 0.35 0.31 0.33 0.29 0.29 0.29 0.35 0.31 0.34 0.33 0.36 0.34 0.34 0.31 0.32 0.38 0.39 0.35 0.41 0.47 0.47 0.45 0.42 0.44 0.37 0.36 0.39 0.37 0.32 0.30 0.28 0.26 0.27 0.27 0.32 0.35 0.36 0.36 0.34 0.34 0.33 0.36 0.34 0.33 0.36 0.34 0.32 0.31 0.29 0.29 0.28 0.29 0.31 0.30 0.27 0.29 0.31 0.44 0.47 0.45 0.52 0.59 0.66 0.68 0.68 0.77 0.80 0.84 0.88 0.94 0.94 0.93 0.97 0.99 0.98 0.96 0.98 1.00 1.03 1.02 1.05
0.51 0.49 0.38 0.46 0.48 0.44 0.34 0.35 0.33 0.36 0.26 0.25 0.28 0.23 0.33 0.30 0.26 0.29 0.32 0.35 0.31 0.30 0.32 0.32 0.34 0.37 0.40 0.43 0.45 0.44 0.47 0.46 0.46 0.40 0.38 0.42 0.33 0.38 0.33 0.30 0.28 0.27 0.31 0.30 0.30 0.33 0.29 0.30 0.35 0.32 0.29 0.28 0.30 0.31 0.31 0.30 0.29 0.28 0.28 0.28 0.28 0.26 0.28 0.40 0.55 0.48 0.53 0.59 0.68 0.70 0.67 0.66 0.83 0.87 0.86 0.90 0.91 0.93 0.90 0.88 0.89 0.92 0.94 0.95 0.95 0.98 1.02 1.03
0.60 0.66 0.64 0.50 0.44 0.35 0.33 0.37 0.39 0.42 0.36 0.37 0.36 0.23 0.37 0.30 0.27 0.26 0.25 0.35 0.34 0.34 0.36 0.35 0.37 0.37 0.45 0.45 0.42 0.45 0.51 0.49 0.46 0.48 0.45 0.42 0.39 0.40 0.36 0.34 0.34 0.32 0.28 0.27 0.25 0.26 0.22 0.27 0.30 0.30 0.25 0.25 0.29 0.30 0.31 0.31 0.28 0.27 0.26 0.25 0.25 0.25 0.23 0.29 0.43 0.63 0.52 0.57 0.65 0.65 0.59 0.61 0.78 0.87 0.89 0.89 0.89 0.87 0.85 0.87 0.87 0.88 0.90 0.89 0.89 0.93 0.96 1.01
0.60 0.65 0.69 0.59 0.44 0.38 0.38 0.36 0.35 0.41 0.36 0.40 0.35 0.34 0.33 0.32 0.36 0.38 0.28 0.29 0.31 0.35 0.38 0.39 0.40 0.42 0.40 0.38 0.35 0.37 0.43 0.43 0.42 0.42 0.40 0.41 0.41 0.45 0.43 0.41 0.39 0.35 0.32 0.29 0.31 0.26 0.23 0.22 0.24 0.25 0.23 0.23 0.25 0.28 0.30 0.29 0.26 0.25 0.26 0.25 0.23 0.24 0.24 0.30 0.47 0.58 0.63 0.62 0.57 0.54 0.58 0.73 0.77 0.86 0.83 0.84 0.86 0.86 0.85 0.86 0.86 0.86 0.88 0.88 0.87 0.87 0.92 0.97
Wind_Speed
15 15 15 15 15 15 15 15 15 15 15 14 14 14 14 14 14 14 14 14 14 14 14 14 14 14 14 14 15 15 14 14 14 15 16 15 15 16 14 13 14 14 13 12 14 15 15 16 15 15 14 13 10 9 8 8 7 3 2 2 4 5 5 3 2 5 9 12 13 13 13 11 11 10 9 9 8 8 8 10 12 12 13 15 18 21 22 22
16 15 15 15 15 15 15 15 15 15 15 15 15 15 15 14 14 14 14 14 14 14 14 14 14 14 14 14 14 15 14 15 15 17 18 17 16 16 15 14 14 14 13 13 14 15 15 16 15 16 15 12 10 9 8 8 7 4 2 2 3 4 3 2 2 5 9 12 12 12 12 10 10 10 9 8 8 7 7 10 13 14 16 17 19 20 21 21
16 16 16 15 15 15 15 15 15 15 16 16 16 16 15 15 15 15 15 15 15 15 15 15 14 14 14 14 14 14 14 15 16 16 16 17 18 17 16 15 14 14 14 14 14 15 16 16 15 15 14 11 10 11 9 8 7 5 3 2 2 2 3 2 4 7 9 12 12 12 12 10 10 9 8 9 9 6 6 10 13 14 17 18 19 19 20 21
15 16 16 16 16 16 16 16 16 16 16 16 16 16 16 16 16 16 15 15 15 15 15 15 15 14 14 13 13 13 14 14 14 14 13 15 18 18 17 16 15 15 14 14 14 15 16 15 14 14 13 12 11 12 10 8 7 5 3 2 2 1 1 1 5 8 10 11 11 11 12 11 10 9 9 10 10 7 7 11 14 15 18 18 19 19 19 20
16 15 16 16 16 16 16 16 16 16 16 16 17 17 17 17 17 16 16 16 15 15 15 15 15 15 14 14 13 13 13 12 13 14 13 13 16 17 17 17 16 15 15 15 15 16 16 13 13 13 12 12 11 11 11 10 8 6 4 4 4 3 1 2 6 9 10 10 10 11 12 12 11 9 10 10 10 7 8 13 15 14 17 18 18 18 18 18
16 16 15 15 16 16 16 16 16 16 16 17 17 17 17 17 17 17 17 16 16 16 16 16 15 15 14 14 13 14 13 12 12 13 13 13 14 16 17 17 17 16 15 15 15 16 16 13 13 12 11 11 11 11 10 10 8 6 5 4 5 5 3 4 6 10 10 10 10 10 11 12 11 9 10 10 9 7 8 13 15 14 16 17 17 17 17 17
17 16 16 16 16 16 16 16 16 16 16 17 17 17 17 17 17 18 18 17 17 16 16 16 16 15 14 14 14 14 15 15 14 13 13 13 14 15 17 17 17 16 16 16 16 16 16 14 13 12 11 10 10 11 10 9 8 7 5 5 7 7 6 6 7 9 11 11 11 10 10 11 10 9 10 9 8 8 9 13 14 15 16 16 17 17 17 17
18 17 17 16 16 16 16 16 16 16 16 16 17 17 18 18 18 18 18 18 17 17 17 16 16 15 14 14 14 14 15 17 16 14 13 14 14 15 17 17 17 17 17 17 16 17 16 14 14 12 11 10 10 10 10 8 7 7 6 5 7 7 6 7 7 8 10 11 12 10 9 10 10 9 10 9 9 10 11 13 14 15 16 15 16 16 16 16
18 18 18 17 17 17 16 16 16 16 16 16 16 17 18 18 18 18 18 18 18 18 17 16 16 16 15 14 14 14 15 15 16 15 14 14 15 16 18 18 18 18 17 17 16 17 16 14 14 13 11 10 10 10 10 9 8 9 8 6 7 7 7 8 8 8 10 11 12 11 8 9 9 9 9 9 10 11 13 15 15 15 16 15 15 15 15 15
19 19 18 18 18 17 17 17 17 16 16 16 16 16 17 17 18 18 19 18 18 18 18 17 17 16 16 15 14 14 14 14 14 15 15 15 15 16 18 19 20 19 18 16 16 17 17 15 14 13 12 10 9 10 11 11 10 10 10 8 9 9 8 9 8 9 10 11 13 11 9 8 8 9 10 10 10 11 14 16 15 15 16 15 15 15 15 15
20 20 19 19 18 18 18 17 17 17 16 16 16 16 16 17 18 18 19 19 19 19 18 18 17 17 17 16 16 15 15 14 14 14 15 16 16 16 18 20 21 20 18 16 15 17 18 17 15 13 11 8 9 10 10 10 11 11 10 8 9 8 6 9 9 9 10 11 12 12 10 8 7 9 10 10 10 11 15 16 15 15 15 15 15 15 15 14
20 20 20 20 19 18 18 18 17 17 17 16 16 16 16 16 17 18 18 18 19 19 18 18 18 17 17 17 18 18 16 15 14 14 14 16 16 16 18 20 21 21 18 16 16 17 18 17 16 14 10 8 8 9 7 10 12 11 11 9 7 6 6 8 8 8 9 10 13 13 10 9 8 9 10 9 10 12 15 16 16 15 15 15 15 15 15 14
21 21 21 20 20 19 18 18 18 17 17 16 16 16 15 15 16 16 17 17 18 18 18 19 18 18 17 17 19 19 17 16 15 14 14 15 16 17 18 19 22 21 19 17 16 16 17 17 16 14 12 9 9 8 6 9 12 12 12 10 8 8 8 7 6 8 8 10 14 12 10 11 10 10 10 9 10 13 15 15 15 15 15 15 15 15 15 14
21 21 21 21 20 19 19 18 18 17 17 16 16 16 15 15 15 15 15 16 17 17 18 18 18 18 18 18 18 18 18 17 16 15 14 15 17 18 18 19 21 21 19 18 16 14 16 17 16 14 13 11 10 9 7 9 11 11 11 11 10 9 8 6 5 7 7 10 15 11 10 12 12 12 12 11 10 12 15 15 15 15 15 15 15 15 15 14
21 21 21 20 20 20 19 18 18 17 17 16 16 15 15 15 14 14 14 14 15 16 17 18 19 18 18 19 18 18 18 18 18 17 15 16 17 18 19 19 21 21 20 19 16 14 15 17 16 14 14 14 12 10 9 9 10 11 10 11 12 10 9 7 6 6 6 9 13 11 10 12 12 13 14 13 11 11 14 15 15 15 16 15 15 15 14 14
21 21 21 21 20 20 19 18 18 17 17 16 16 16 15 15 14 13 13 13 13 14 16 17 18 18 18 18 17 17 18 18 18 18 17 18 18 18 19 20 21 21 21 19 17 14 14 16 16 14 15 15 12 11 10 9 10 11 11 11 11 10 10 9 7 6 7 9 11 10 10 11 12 14 15 14 12 11 13 15 15 15 16 16 15 15 15 15
21 21 21 21 21 20 19 19 18 17 17 16 16 15 15 14 13 12 12 13 13 14 16 16 17 18 19 18 17 18 19 19 19 19 18 19 19 18 19 20 20 21 21 19 17 15 15 16 16 15 16 15 13 12 11 11 12 12 11 11 10 11 11 10 8 8 9 9 11 11 10 10 12 14 16 15 13 12 13 15 16 16 16 16 15 15 15 15
22 22 21 21 21 21 20 19 18 17 16 16 15 15 15 14 13 12 12 12 12 13 15 16 16 16 18 19 19 20 20 20 20 20 19 19 19 19 19 19 20 20 20 18 18 17 15 16 16 16 17 16 14 13 13 13 13 12 12 11 10 11 11 11 10 9 10 10 11 12 10 10 12 14 16 16 14 13 12 13 14 15 16 16 15 15 15 15
22 22 22 21 21 20 20 19 18 17 16 15 15 15 14 13 12 12 12 12 12 13 13 15 17 15 14 16 19 20 19 20 20 20 20 19 19 19 18 18 19 19 19 18 19 19 16 15 16 17 18 17 16 15 14 15 13 11 11 11 11 10 10 11 11 10 11 10 10 12 10 10 12 14 16 15 14 14 13 12 12 14 16 17 16 15 16 16
22 22 22 21 21 20 19 19 17 16 15 14 13 12 12 11 10 11 12 14 14 15 15 15 18 19 16 15 17 19 20 20 20 20 21 20 19 19 19 18 19 19 18 18 18 19 18 16 16 17 19 18 18 17 16 15 13 11 10 11 14 11 10 12 11 11 12 9 9 11 10 11 12 14 15 15 15 15 14 13 13 13 15 16 16 16 16 16
22 21 21 21 20 19 18 17 16 15 13 12 11 10 11 11 10 10 11 14 16 18 18 17 18 20 20 17 17 19 20 20 20 21 21 21 19 19 19 19 18 18 18 18 18 19 19 18 17 17 19 20 19 17 16 15 14 12 9 9 13 12 10 12 11 12 11 8 9 11 11 12 12 13 14 15 17 16 14 14 13 13 13 14 16 17 17 15
21 21 21 20 19 18 17 16 14 13 11 10 9 10 11 12 11 11 12 13 15 17 19 19 18 19 20 19 18 20 20 19 21 21 21 21 20 19 19 19 18 17 18 19 18 18 19 19 18 17 18 20 19 18 17 15 14 13 10 8 11 12 10 10 11 12 10 7 9 10 10 10 11 13 13 14 17 17 16 16 14 14 14 14 14 16 18 16
21 21 20 19 18 17 15 14 13 12 10 8 8 10 11 11 11 12 12 13 14 16 18 19 19 18 18 16 17 21 20 19 21 21 22 22 21 20 20 19 18 18 18 19 19 19 19 18 19 18 18 19 20 19 18 16 15 13 11 9 10 13 12 10 11 13 10 8 9 9 8 9 10 12 12 13 16 18 18 17 17 15 14 14 13 14 17 17
21 20 19 18 17 16 15 14 12 10 9 8 9 10 11 11 11 11 11 12 13 14 16 18 19 18 17 15 16 19 18 18 21 22 22 22 22 21 20 19 19 18 18 19 20 20 19 18 19 19 18 19 20 20 18 16 15 14 13 11 11 14 13 11 13 12 8 8 10 10 8 7 9 11 11 12 15 18 18 18 19 18 15 15 14 14 15 17
20 19 18 17 16 15 14 13 10 9 9 9 9 9 9 10 9 9 10 11 11 12 14 17 17 18 18 16 17 17 17 18 20 22 23 22 23 21 20 20 19 18 19 20 20 19 18 18 19 20 19 19 19 20 19 17 15 15 14 12 11 14 14 13 15 13 9 9 12 11 7 6 9 11 11 12 13 17 17 18 20 19 16 16 16 15 15 16
20 18 17 16 15 15 13 10 9 10 10 10 9 8 8 8 8 9 8 9 9 9 10 13 15 16 17 18 18 16 17 18 19 22 23 22 24 21 19 19 18 18 19 18 18 18 18 18 19 20 20 19 19 19 19 18 17 15 15 12 10 13 15 14 15 14 9 9 13 13 7 7 9 9 11 12 13 16 17 18 19 20 19 18 18 17 15 16
18 17 16 15 14 14 11 9 10 10 9 9 8 8 8 6 6 7 6 7 9 9 9 11 13 14 16 18 19 16 15 17 19 21 22 22 24 22 20 18 17 18 18 17 17 17 18 19 19 20 20 19 19 19 18 19 18 15 15 15 12 13 16 16 16 13 10 9 12 12 9 8 9 8 10 12 13 15 17 17 18 20 21 20 19 19 16 15
17 16 15 14 14 12 10 10 10 9 9 9 8 7 7 6 5 4 4 5 6 7 8 10 11 13 15 17 19 17 14 16 18 21 22 22 23 23 21 20 18 18 19 18 18 17 18 19 19 20 20 19 19 19 18 18 19 17 15 14 14 15 16 16 14 12 10 11 12 12 10 8 8 8 9 11 13 14 15 17 19 21 22 21 21 20 17 15
16 15 15 14 13 11 9 9 9 9 9 9 8 7 6 5 4 3 4 4 4 6 8 9 10 12 15 16 18 19 16 15 16 20 21 21 22 23 21 20 18 18 19 19 19 17 17 19 20 19 19 19 18 19 19 17 17 19 16 13 14 16 16 15 13 10 10 12 13 15 13 8 8 9 9 10 12 12 13 15 18 21 22 21 21 20 18 16
15 14 14 13 11 10 8 8 8 9 9 8 8 6 4 3 3 3 4 4 4 6 7 8 10 13 15 16 17 19 18 15 15 19 21 19 22 23 21 20 20 19 19 19 20 19 17 18 20 19 18 19 18 19 20 19 16 18 18 14 13 15 15 14 13 10 9 11 13 17 17 11 9 10 9 10 11 12 12 12 16 20 22 21 21 20 19 18
14 14 13 12 10 8 8 8 8 9 8 7 6 4 3 2 2 3 3 3 3 5 6 8 10 13 15 16 16 18 19 16 15 18 19 17 20 22 21 20 19 18 18 19 20 20 18 17 18 19 18 17 18 19 20 20 18 18 19 15 12 13 13 12 13 12 11 10 10 14 15 10 9 10 10 10 10 11 12 11 13 18 20 20 21 21 21 19
14 13 12 10 8 8 7 7 7 8 7 5 4 2 2 1 2 2 2 3 3 4 6 8 10 11 15 16 16 18 18 16 16 17 17 17 18 20 21 20 19 18 18 18 19 20 18 15 16 19 19 17 17 18 18 18 17 18 19 17 14 14 12 12 13 12 12 11 9 12 12 8 8 10 11 11 11 11 11 11 12 15 17 19 21 22 21 19
14 13 11 8 7 6 6 6 6 6 5 3 3 2 1 1 1 1 1 1 2 2 4 6 8 10 14 16 16 18 17 15 16 15 16 18 18 19 21 21 21 19 17 16 18 20 18 15 15 17 18 19 18 16 17 17 17 18 19 17 16 15 13 13 13 12 12 11 11 12 10 9 9 10 10 11 10 10 10 10 12 14 17 19 21 21 20 19
13 12 9 7 6 5 5 5 4 4 4 2 2 2 2 2 1 1 1 1 1 1 2 5 7 7 12 15 15 17 17 16 15 14 16 17 17 18 21 21 22 20 15 15 17 20 19 16 16 17 17 20 21 17 15 17 18 20 18 16 16 15 14 13 12 12 12 11 11 10 9 11 11 10 10 10 9 10 10 10 10 12 14 17 19 20 19 19
12 9 7 6 5 4 4 3 2 2 2 2 2 2 2 1 0 1 2 2 2 1 1 5 6 6 11 13 13 16 17 16 15 14 15 16 15 17 19 20 21 20 15 13 15 19 20 19 18 18 18 21 22 19 16 15 17 20 20 17 16 16 16 14 12 12 12 10 10 9 9 11 11 9 9 9 9 11 11 11 10 10 11 14 16 16 17 19
10 7 6 6 5 3 3 1 1 1 0 1 1 1 1 2 2 2 1 2 3 2 1 4 6 6 10 11 11 14 15 14 14 14 14 15 14 14 17 18 17 17 16 13 13 16 18 19 18 18 18 21 21 18 17 15 14 18 21 19 17 16 17 15 12 12 11 10 11 11 12 12 10 9 9 9 9 11 11 11 10 9 9 10 12 14 16 17
8 7 5 5 4 2 2 1 1 1 0 1 1 1 3 2 2 3 2 3 2 2 2 4 6 6 9 10 9 10 11 12 12 12 13 14 13 11 13 15 12 13 16 15 13 14 14 15 18 21 20 19 20 18 18 18 15 15 18 18 16 15 16 15 13 12 11 11 12 12 14 14 12 11 11 10 9 10 11 11 9 9 8 7 9 13 15 16
6 5 4 5 3 0 1 1 1 1 1 2 2 3 4 2 2 3 2 2 1 2 3 5 5 5 6 8 10 8 8 11 10 10 11 13 12 9 10 14 12 11 14 14 14 14 13 12 16 20 20 17 18 18 19 20 18 16 16 16 16 15 15 15 14 13 11 12 13 12 12 12 12 13 14 13 12 10 10 10 10 9 8 7 8 11 14 14
5 4 3 3 2 2 2 2 1 1 1 2 2 3 3 2 2 1 1 2 1 1 2 5 6 5 5 5 10 9 7 10 9 6 10 12 11 10 10 13 14 13 13 14 14 13 13 14 15 18 18 17 17 18 19 19 18 17 16 17 18 17 15 15 15 15 13 13 14 13 12 12 13 14 14 14 13 11 10 9 10 10 9 8 8 9 12 13
4 3 3 1 2 2 2 1 1 1 2 3 2 3 3 2 2 0 0 2 1 0 2 6 5 5 5 4 9 9 6 9 8 5 9 9 8 10 10 12 15 15 14 14 14 12 12 15 16 18 18 18 18 19 20 20 18 17 16 16 19 18 16 15 14 16 15 14 15 14 13 13 14 15 14 14 13 11 10 10 10 11 10 9 9 9 10 12
4 2 2 1 1 1 0 1 2 2 2 3 2 3 3 2 3 1 1 1 0 1 2 6 5 5 6 5 10 11 6 6 6 6 9 7 6 10 11 12 14 15 15 14 12 10 10 12 14 16 16 18 19 19 21 21 19 17 16 16 17 17 17 15 13 13 15 15 16 15 13 13 15 15 14 13 12 11 10 10 10 11 11 11 11 10 10 10
2 1 1 1 1 1 1 1 3 3 2 1 2 3 3 1 3 1 2 0 1 2 3 4 5 5 5 6 10 11 7 7 6 6 8 7 7 9 10 11 12 14 15 14 12 10 9 10 12 14 15 16 18 19 20 20 19 17 16 16 15 14 14 14 12 12 12 14 15 14 13 14 15 14 13 13 13 12 11 10 10 11 12 13 12 11 10 10
2 2 3 3 2 2 2 2 3 3 2 3 5 4 2 1 2 1 1 1 1 3 3 3 4 5 5 6 9 8 6 7 6 6 8 8 8 9 9 9 11 13 15 15 14 11 9 11 11 12 13 13 15 18 18 18 17 17 17 16 13 10 11 14 14 14 13 15 16 14 13 16 15 14 13 13 13 14 12 10 11 11 12 13 13 12 11 10
3 3 3 2 0 1 1 2 4 3 2 4 4 2 1 1 1 2 2 2 2 3 4 4 4 4 5 7 9 7 6 8 7 5 7 8 7 7 8 9 11 13 15 16 16 13 10 11 12 11 12 11 12 14 15 16 17 18 18 16 12 9 11 13 13 13 13 14 16 15 14 17 17 15 15 13 13 14 12 10 10 12 13 13 13 13 13 12
3 2 1 1 0 1 2 2 2 3 3 3 3 2 1 1 0 1 1 2 2 3 4 5 4 4 6 7 6 5 6 9 8 5 5 7 7 6 7 9 11 14 15 15 15 14 13 13 12 12 12 12 12 12 14 16 17 18 19 16 11 9 11 12 12 12 13 14 15 15 16 18 18 16 15 14 13 13 12 10 9 10 12 13 13 13 13 13
1 0 0 1 2 2 2 2 1 1 2 2 1 1 0 1 1 2 2 1 2 3 3 3 3 4 6 5 5 5 6 8 7 6 5 6 7 6 6 8 11 13 15 14 13 13 14 14 12 12 13 12 12 11 11 13 15 17 19 15 9 10 13 13 12 13 15 15 14 16 19 20 19 18 17 16 15 13 11 10 10 10 12 13 13 13 12 12
0 1 1 1 1 1 2 2 2 1 1 1 1 0 1 0 1 1 2 2 4 3 2 3 3 4 5 4 5 5 5 7 7 5 5 5 6 7 7 8 10 11 13 13 12 13 13 12 11 13 14 12 10 9 8 9 11 15 18 15 11 13 15 13 12 14 16 15 14 17 21 21 20 20 19 17 15 13 12 11 12 12 12 13 13 13 12 11
1 2 2 0 1 1 1 2 3 2 1 0 1 1 2 1 2 2 1 2 4 4 3 4 3 4 5 5 5 4 4 7 7 5 5 5 6 7 7 8 9 9 12 13 13 14 14 12 11 13 14 13 11 10 8 7 8 12 15 12 10 12 15 13 12 15 16 16 18 20 21 20 20 20 19 17 15 13 11 12 13 13 13 13 13 12 12 12
2 2 2 1 1 2 1 1 2 3 2 1 0 0 1 2 3 2 1 1 3 4 4 4 4 4 5 5 6 5 4 5 6 5 4 4 6 7 7 8 8 8 10 13 14 15 15 13 12 12 12 13 12 11 10 8 8 10 12 11 10 10 12 12 13 15 15 17 20 22 20 18 19 18 17 16 14 12 10 10 11 11 11 11 11 12 12 11
2 2 2 2 2 2 1 2 2 1 1 1 1 0 1 3 4 3 2 3 1 3 4 4 4 3 4 5 6 7 6 5 6 5 4 3 5 6 7 8 8 7 9 12 13 15 15 14 13 13 12 13 14 13 12 11 10 10 10 13 14 13 10 10 13 15 17 18 20 21 20 18 18 17 16 15 14 13 11 10 9 9 9 9 10 11 11 11
2 3 2 1 2 1 1 1 1 1 0 1 1 0 1 2 2 3 2 3 3 2 1 3 3 3 4 5 6 6 6 6 6 5 4 3 4 6 7 7 7 7 9 11 11 13 14 14 14 13 13 14 14 14 14 13 11 10 11 12 14 14 12 10 12 16 18 20 21 21 20 21 20 19 17 15 14 13 12 12 11 10 10 9 9 10 11 11
3 3 2 1 1 0 0 0 1 1 1 0 1 0 1 2 1 1 1 2 3 3 2 1 2 3 4 4 4 4 4 4 5 4 4 4 4 5 6 6 6 7 8 10 10 12 13 13 13 13 14 14 15 15 15 13 11 11 11 12 14 15 13 11 12 17 18 20 22 22 21 21 21 20 19 17 15 14 13 14 13 12 12 11 10 10 11 11
Wind_Direction
311 307 304 301 298 295 291 287 284 283 282 281 279 277 275 273 271 270 268 266 265 263 262 262 260 258 255 252 250 250 249 246 243 238 233 231 224 220 222 219 214 212 212 212 209 207 207 208 210 215 218 218 218 220 223 221 214 224 278 312 328 343 351 358 82 135 138 141 148 156 161 152 145 145 143 140 135 138 131 130 136 134 136 138 139 141 141 142
314 310 307 303 299 296 293 288 284 281 279 278 277 276 274 273 272 270 269 267 265 264 263 261 260 258 255 252 250 249 248 245 242 239 234 230 224 220 221 218 212 209 209 209 207 204 205 207 210 216 217 215 215 214 222 220 212 231 261 282 325 349 359 14 119 145 145 145 152 159 156 149 149 145 141 140 139 141 129 133 138 136 137 138 142 144 143 143
316 313 309 305 301 298 295 291 287 282 279 277 275 274 273 272 271 270 269 267 266 264 262 260 259 257 255 252 251 250 247 244 241 237 232 226 221 219 217 214 210 208 209 208 204 202 204 206 207 211 212 213 215 215 218 210 211 239 245 248 300 339 8 41 130 146 148 150 156 158 149 145 151 149 146 144 140 147 154 148 141 140 142 143 146 147 146 146
318 314 311 308 304 300 296 292 289 284 280 277 274 273 271 271 270 269 268 267 266 264 261 259 258 256 253 251 250 248 244 242 234 227 227 222 217 217 215 212 209 209 211 208 204 203 204 206 206 206 207 211 215 217 217 208 214 234 237 238 244 244 29 94 151 150 150 155 159 157 148 145 151 149 147 145 141 152 166 152 142 142 146 146 149 149 150 148
322 318 314 310 307 303 298 294 290 286 282 278 275 273 271 269 269 268 267 266 265 262 261 258 256 254 251 250 248 244 239 233 224 221 225 221 214 213 211 211 209 210 211 208 208 209 209 210 209 206 206 212 217 219 215 207 212 224 243 243 211 196 130 140 160 155 154 157 158 159 155 152 152 148 147 148 148 154 154 149 146 145 147 149 150 150 151 149
324 321 317 313 310 306 301 297 292 288 283 279 276 273 271 269 267 267 266 265 263 261 260 257 255 252 249 248 244 240 232 225 226 226 224 220 214 210 209 209 209 210 209 208 209 212 212 209 209 208 204 208 216 220 212 205 211 221 243 245 213 194 160 151 155 156 158 157 158 161 160 157 153 148 150 154 157 159 151 149 149 147 149 151 151 152 152 151
325 322 319 315 311 308 304 300 296 291 286 281 277 274 271 269 267 265 265 263 262 260 258 256 253 250 248 245 240 236 231 230 233 227 221 219 214 210 209 209 208 207 207 207 209 211 212 207 205 206 204 204 209 217 211 203 212 215 225 235 215 195 168 155 148 155 160 159 160 159 161 163 158 153 156 161 162 158 153 151 149 148 150 152 154 155 154 153
325 322 319 316 312 308 305 301 298 295 290 285 280 276 272 269 267 264 263 261 260 259 257 254 250 247 245 242 237 234 231 231 230 222 218 219 217 212 209 209 207 204 204 206 206 207 209 206 204 204 203 201 205 214 205 198 217 217 215 219 200 189 175 162 152 156 159 161 163 159 163 166 160 158 161 165 160 153 156 154 149 150 151 153 157 156 155 156
325 323 319 316 312 308 305 301 298 296 293 289 283 278 274 270 267 263 261 260 258 257 255 252 248 243 240 239 236 234 231 225 221 221 221 220 218 214 210 209 204 202 203 205 207 211 210 204 204 206 206 210 217 222 209 202 220 213 203 200 186 184 181 167 160 160 160 166 165 160 166 167 163 163 163 166 161 156 161 157 151 153 154 155 158 157 158 160
325 323 320 316 312 308 304 301 298 295 294 291 287 282 276 272 268 264 261 258 256 255 253 250 245 239 237 236 232 231 228 220 219 223 223 221 218 214 211 208 202 200 203 205 210 214 212 204 203 204 209 220 222 226 222 211 211 205 193 190 186 184 181 170 162 162 164 169 169 165 168 171 173 171 163 163 163 160 161 157 154 156 156 158 159 159 163 164
324 322 320 316 312 308 304 301 298 295 293 291 289 285 280 275 269 264 261 258 255 252 250 246 241 237 236 234 231 230 226 221 223 225 222 218 216 213 209 205 200 200 202 205 209 211 209 207 207 205 207 215 218 227 227 202 194 195 186 184 182 173 179 177 164 162 167 172 170 163 164 171 180 177 166 162 162 162 161 159 158 159 159 161 161 163 167 165
324 322 319 317 313 309 304 300 297 295 293 290 288 286 282 278 272 267 262 258 253 249 246 242 237 235 235 234 231 227 225 223 220 221 221 216 215 212 206 202 200 200 201 205 208 208 207 210 212 212 214 218 217 220 216 192 187 187 181 183 182 172 187 184 167 166 173 176 171 164 166 179 188 185 177 169 165 164 163 162 162 162 162 163 164 166 168 165
324 322 320 318 315 310 306 301 297 294 292 289 287 285 282 279 275 270 263 257 252 247 243 238 234 234 235 234 229 224 227 226 217 217 219 215 212 209 205 202 201 201 205 210 212 209 209 212 214 218 222 221 214 216 222 204 192 188 186 187 184 183 192 183 166 169 173 179 179 178 182 188 195 196 190 180 170 168 167 165 166 166 165 166 166 168 168 167
325 323 321 319 316 312 308 303 298 294 290 288 286 284 281 278 275 271 264 257 251 245 239 234 233 233 232 232 230 227 228 223 216 217 216 212 208 206 206 204 203 204 210 215 218 216 213 213 217 221 218 214 214 218 223 205 191 191 191 191 192 194 196 194 185 173 168 182 188 193 194 192 198 200 196 189 179 172 170 169 170 169 167 167 168 169 171 170
325 323 321 319 316 313 309 304 299 294 290 287 284 281 279 277 274 269 262 256 251 243 236 233 232 232 232 234 232 228 223 217 217 218 213 210 208 206 207 205 205 207 212 215 216 220 217 213 216 219 212 209 213 211 208 203 195 194 194 197 200 199 197 204 207 188 179 190 196 199 195 194 198 198 197 194 187 178 174 174 173 172 168 168 171 171 172 172
325 323 321 319 317 314 311 306 301 295 290 286 283 279 275 273 271 266 260 255 250 241 234 233 233 231 231 231 230 225 221 219 220 218 213 210 207 205 206 205 205 207 212 214 215 218 218 213 213 215 209 205 205 203 206 207 199 195 198 202 201 196 194 198 206 206 197 194 201 205 196 194 197 195 196 197 192 181 178 178 177 175 171 171 174 173 172 172
324 322 320 318 316 314 312 308 302 296 291 287 282 277 272 270 268 264 260 254 249 241 237 236 234 233 232 231 231 227 222 222 221 216 212 211 207 205 204 204 206 207 210 214 213 214 214 210 209 210 207 202 201 201 205 209 201 195 200 204 200 197 196 196 199 205 199 194 202 207 200 196 193 193 195 198 194 183 182 183 181 178 173 175 176 173 174 175
323 321 318 317 315 313 312 308 303 296 291 287 281 274 268 267 265 262 257 252 248 243 240 237 233 232 231 230 230 225 220 220 217 213 210 209 209 207 204 204 205 205 207 211 211 210 210 208 206 208 207 203 203 203 203 205 199 191 199 204 197 196 199 201 203 202 199 199 204 203 201 197 192 192 195 197 193 183 184 184 183 182 175 177 179 174 177 178
322 320 317 316 314 313 311 309 304 298 292 288 279 270 265 263 261 260 256 251 246 241 238 231 222 223 229 229 225 222 219 215 212 210 208 208 208 207 205 204 205 206 206 208 208 207 208 206 206 210 209 205 203 205 205 205 203 198 204 204 195 197 203 204 204 200 198 201 205 202 201 201 197 195 195 195 191 184 185 185 183 186 179 179 182 177 179 180
321 318 317 316 315 314 312 310 306 300 294 288 279 268 261 260 261 261 254 247 242 238 241 234 222 226 236 233 224 219 215 210 209 210 208 207 205 204 206 206 206 208 208 207 206 206 208 208 208 209 208 206 207 209 210 213 219 220 218 206 194 197 202 201 200 198 199 201 205 205 200 200 200 197 195 195 192 186 187 187 184 185 182 183 183 178 181 183
320 318 318 317 317 315 314 312 307 303 295 286 277 264 260 263 267 270 259 248 243 237 240 240 230 230 233 234 229 218 210 208 209 210 209 207 204 203 206 207 207 208 209 208 207 207 209 210 211 210 208 208 210 212 214 217 221 222 224 206 195 199 199 197 194 191 198 201 200 199 194 197 200 197 195 195 194 190 188 187 187 187 185 188 186 179 182 184
319 318 319 319 319 317 316 314 311 307 299 287 274 261 262 265 268 277 270 257 249 240 238 239 235 229 230 236 231 213 208 211 210 209 208 205 204 204 204 206 207 208 208 208 208 207 209 212 213 211 207 208 211 215 215 216 217 219 222 211 198 197 189 190 191 185 189 196 193 189 184 192 197 194 195 196 194 191 191 192 193 192 189 191 191 184 185 185
320 319 320 321 321 319 317 317 315 311 300 284 271 264 265 268 271 276 270 260 254 247 238 232 230 227 228 232 218 205 208 213 210 209 206 204 206 205 203 205 208 208 207 207 209 208 208 212 213 212 209 206 210 214 214 215 217 217 215 210 198 192 190 194 191 184 186 190 185 177 170 178 186 188 195 199 194 190 194 197 195 195 193 192 195 191 188 187
320 321 321 322 322 320 318 317 316 315 305 285 277 274 272 273 276 278 270 260 254 249 241 229 225 224 223 219 208 206 212 213 211 209 205 205 207 205 204 207 207 209 209 207 210 211 211 211 210 212 212 208 208 211 213 214 215 214 212 209 198 192 195 192 183 181 185 188 181 170 160 169 183 187 192 198 195 193 195 196 196 199 198 192 194 195 192 189
322 322 322 321 322 321 318 317 317 320 316 297 285 284 282 275 276 281 273 261 252 245 238 226 220 222 220 213 208 211 216 215 214 209 204 206 207 204 206 208 206 209 210 208 210 213 213 211 208 209 211 211 210 210 212 212 209 212 213 213 204 191 184 179 177 177 179 190 192 183 169 177 186 187 190 195 200 200 197 195 197 202 201 196 196 198 196 193
324 322 321 321 322 322 319 318 318 319 315 299 288 291 290 280 282 284 268 259 254 238 225 216 215 220 218 212 209 214 218 217 215 208 203 206 208 205 206 207 207 208 209 209 211 214 213 212 209 208 209 211 212 210 211 209 206 209 208 205 200 184 177 179 181 181 182 193 200 197 187 182 186 188 190 193 202 204 200 198 200 202 202 200 201 199 197 195
324 321 320 320 322 324 321 319 320 321 317 309 299 295 292 282 286 284 261 255 245 225 214 212 217 218 213 212 211 214 218 213 209 204 202 205 207 208 208 207 206 208 209 208 211 213 211 212 212 209 209 209 208 209 211 207 205 208 202 196 194 185 184 189 187 190 194 187 192 199 190 180 190 195 190 191 197 200 202 202 200 200 203 203 203 200 197 196
324 321 319 320 322 322 319 318 320 320 318 318 312 301 295 285 280 273 258 257 231 212 213 212 216 213 210 214 210 210 215 207 204 202 201 204 207 208 209 209 210 211 209 210 212 211 208 211 213 210 208 209 208 208 210 205 202 206 203 198 199 192 190 194 193 198 198 187 191 199 193 185 195 200 194 194 194 195 201 203 199 199 202 202 202 200 196 195
323 320 320 321 321 318 317 318 319 317 316 320 316 303 297 286 272 258 250 252 225 216 217 214 214 210 211 215 210 211 213 205 204 203 200 204 207 207 209 211 215 216 213 213 214 211 209 212 213 208 207 210 208 207 209 206 202 204 205 210 209 197 194 200 201 202 200 198 200 199 197 195 199 200 196 199 201 199 202 205 202 200 200 200 200 199 197 195
321 320 322 323 321 320 319 315 316 318 318 321 319 303 290 277 257 253 248 239 226 217 216 217 218 212 210 210 208 209 211 208 205 201 200 206 206 206 211 215 217 216 213 216 218 215 210 208 210 210 211 209 205 203 206 207 204 199 201 211 212 202 202 205 206 211 213 214 209 199 197 197 198 201 200 204 208 203 202 203 202 200 198 198 199 199 199 198
319 321 323 324 322 322 319 313 320 332 332 327 322 303 290 278 229 247 253 229 229 227 225 221 216 212 208 207 206 205 209 211 204 200 203 207 205 205 211 215 212 210 212 215 215 213 209 206 208 211 211 206 204 204 204 207 209 203 202 206 204 203 205 202 205 213 216 224 218 194 189 195 204 208 207 208 207 199 200 200 194 195 196 197 199 200 201 200
318 321 322 321 320 320 318 316 327 342 345 340 337 323 313 294 209 240 262 235 238 245 242 223 206 207 206 204 204 202 206 206 200 202 205 206 208 207 208 210 205 205 211 213 208 206 208 211 209 208 208 203 203 207 203 206 210 205 204 204 200 201 204 203 206 207 209 219 209 180 180 198 208 202 197 194 193 192 197 197 191 192 194 195 197 200 200 201
318 323 322 318 318 321 325 323 327 340 346 351 357 356 23 91 181 228 241 279 260 259 256 216 195 201 202 201 202 199 201 200 199 207 208 206 211 210 209 210 205 203 208 212 209 202 204 213 208 203 205 204 204 204 199 205 210 203 201 201 199 200 203 208 210 209 213 214 195 178 183 199 201 200 198 191 187 185 185 187 188 192 195 195 195 197 199 201
317 322 323 320 321 324 328 325 327 346 357 9 20 35 81 115 141 220 223 316 316 276 249 193 181 197 200 201 201 198 202 203 202 209 209 207 210 209 208 208 206 206 210 215 211 201 201 209 207 202 203 202 202 200 200 209 211 205 203 201 202 203 202 205 207 209 214 204 191 193 197 197 197 199 202 194 184 182 181 184 187 188 194 197 196 195 198 201
316 325 327 325 325 327 331 325 325 345 5 31 53 73 79 125 281 278 250 299 310 286 232 184 179 190 194 197 201 200 203 206 205 207 207 205 205 205 205 205 205 207 209 213 211 204 202 205 204 203 204 202 199 200 205 209 207 204 203 203 208 209 204 206 208 209 206 194 199 208 195 191 191 191 199 195 184 181 181 184 187 184 188 196 197 195 197 200
317 329 332 333 331 337 352 360 10 341 302 17 46 79 322 295 297 292 279 324 302 273 233 191 182 179 183 191 202 201 200 205 206 206 204 199 195 198 201 203 204 202 200 205 208 201 200 207 208 202 202 203 201 203 205 200 198 202 203 207 214 211 206 211 221 221 211 199 206 203 186 186 193 198 207 202 192 189 184 183 186 183 182 192 198 197 198 200
318 323 322 325 322 324 5 22 38 47 141 353 345 302 302 292 284 276 281 326 282 226 235 212 189 184 189 193 196 191 193 199 199 199 199 191 186 193 196 194 195 194 192 198 201 194 197 212 211 198 195 202 204 208 209 203 199 196 200 212 218 209 206 212 219 222 213 201 205 202 191 193 200 203 203 197 192 190 185 181 180 182 181 185 193 195 196 198
325 326 312 315 319 34 53 51 70 82 40 350 319 309 311 293 285 278 281 323 261 225 251 211 182 186 196 195 189 182 190 193 187 193 197 186 184 193 190 184 188 192 193 197 196 195 201 210 205 196 195 200 204 206 210 211 209 202 205 214 211 206 210 212 213 215 208 200 203 206 205 205 205 201 196 192 188 179 176 177 177 180 183 182 183 186 190 195
336 341 324 336 69 100 78 79 51 348 343 341 323 323 329 331 326 283 267 314 284 256 231 189 177 189 187 181 183 183 196 195 188 192 193 189 195 201 194 191 197 201 200 200 196 197 206 207 203 201 201 205 206 205 207 212 213 211 215 216 208 206 211 212 216 215 206 204 204 203 210 213 206 201 196 194 192 183 178 183 182 179 180 181 179 179 186 192
344 348 330 345 114 95 66 83 16 355 336 333 326 328 332 339 344 319 243 313 267 177 184 174 170 185 183 179 185 188 201 201 200 194 183 186 193 196 200 202 206 208 203 200 198 203 214 211 205 206 209 210 209 207 207 208 208 209 214 216 212 213 214 216 223 217 205 206 208 203 208 211 205 203 201 197 195 193 190 190 189 185 181 181 177 173 178 185
343 1 3 10 165 165 11 274 333 351 334 324 323 335 334 324 327 290 169 327 216 155 182 184 184 182 182 189 191 193 199 197 199 190 184 188 185 193 206 210 211 210 203 199 197 200 214 210 199 202 208 210 209 208 208 207 208 208 210 212 212 216 221 223 229 221 206 205 207 203 203 204 201 202 205 203 197 192 190 188 191 191 188 188 184 175 173 177
330 359 353 334 220 234 294 286 318 330 325 325 318 336 346 309 319 312 176 78 77 123 152 175 178 171 174 184 186 189 193 190 196 193 189 194 193 198 209 212 213 207 199 198 197 196 204 199 195 200 205 206 207 204 201 203 209 210 208 207 207 213 216 212 215 213 200 195 198 199 199 199 200 202 207 211 198 184 186 188 189 192 192 195 194 185 178 176
316 292 309 316 254 237 277 311 325 312 270 294 295 305 338 330 344 12 180 175 122 163 162 142 138 153 173 182 177 179 183 180 191 204 194 190 199 210 213 213 213 205 197 195 195 199 203 194 196 202 197 194 197 196 196 202 208 208 205 202 199 205 203 200 205 203 194 190 193 200 205 200 202 202 202 207 194 178 184 190 187 189 190 194 197 194 190 186
308 291 302 331 144 202 264 310 335 323 268 280 275 249 289 345 26 53 119 142 156 176 171 162 148 145 154 164 168 173 176 174 181 198 195 193 204 216 213 211 209 201 197 195 195 200 200 194 196 195 186 183 187 194 203 210 209 205 203 202 202 207 202 202 206 199 196 199 196 201 206 200 200 197 192 200 193 177 178 183 182 186 186 188 194 197 199 199
306 272 261 292 217 250 279 287 331 336 299 281 265 228 216 202 193 222 156 134 150 150 156 180 190 161 152 156 166 173 170 175 184 186 188 197 203 204 200 199 197 195 196 198 201 202 198 196 195 186 183 187 190 200 210 212 209 205 204 206 209 210 203 199 199 193 196 203 199 198 199 195 196 194 193 202 196 179 176 178 181 187 186 185 188 192 198 202
336 334 308 285 256 260 294 303 317 333 317 286 259 357 355 152 162 213 223 210 189 170 155 173 181 176 173 165 170 181 171 173 189 195 189 190 193 196 198 190 188 195 199 201 204 201 196 198 196 186 188 195 195 202 207 203 205 207 206 207 209 206 204 201 200 198 196 196 199 198 191 188 194 196 197 200 192 181 180 181 184 190 188 186 187 187 189 195
336 356 340 297 273 310 323 337 341 321 318 260 175 162 300 308 100 181 218 217 207 203 196 189 166 166 188 184 173 188 184 171 179 191 186 181 182 189 195 186 185 197 203 201 202 200 195 198 202 200 205 211 211 213 211 203 208 214 212 214 215 206 207 210 204 199 198 197 201 198 189 187 193 194 194 194 191 189 189 186 188 194 192 189 188 188 188 191
260 320 330 263 223 312 323 345 350 3 37 75 188 227 285 339 99 119 134 214 211 200 191 209 194 147 162 184 175 175 178 172 176 182 180 186 190 189 190 188 186 194 199 198 200 201 199 202 211 216 217 219 220 222 222 218 218 213 207 212 216 205 207 215 207 200 205 205 200 196 189 187 191 192 191 194 196 195 192 188 189 193 194 191 188 190 194 195
280 305 330 332 271 303 310 301 331 10 44 61 141 244 13 58 99 116 51 5 203 186 178 207 212 161 148 161 168 171 169 162 169 178 179 190 198 195 195 194 193 196 199 199 202 204 204 209 217 220 218 217 218 221 221 218 213 205 199 203 213 211 209 210 205 202 203 199 195 192 188 188 194 196 194 196 196 192 186 182 185 191 196 194 192 193 195 197
295 280 305 314 298 309 330 311 321 15 40 88 134 161 86 79 85 97 61 36 106 178 200 208 211 193 171 167 173 182 184 178 182 190 186 185 195 197 198 197 200 206 204 204 209 208 208 216 222 218 217 221 223 221 219 217 214 212 210 209 213 218 217 207 204 204 197 191 191 190 187 194 203 202 197 197 197 195 192 187 186 190 192 193 195 196 196 198
283 261 261 279 287 305 339 328 3 77 345 112 116 142 140 117 82 82 77 48 60 81 180 184 177 171 164 166 174 180 188 196 199 201 199 195 191 188 190 197 205 210 208 208 212 211 209 218 224 218 217 225 227 223 220 221 220 219 223 222 216 216 221 216 210 207 199 191 191 193 195 202 207 203 200 200 200 201 202 201 201 200 195 192 195 198 200 204
291 258 253 269 264 227 217 341 54 80 247 222 97 42 127 135 94 74 88 65 64 63 63 132 176 184 170 165 174 182 198 205 197 200 212 218 211 190 189 202 209 207 207 207 210 213 211 214 219 217 216 224 229 226 222 222 221 221 228 232 221 213 218 221 210 204 203 199 199 203 206 207 207 207 207 208 208 207 206 206 207 206 201 199 201 203 204 208